Weather History for Rapid City, SD

Change the Weather History Date:

Friday, January 3, 2014

  Actual Average Record
Temperature  
Mean Temperature 37 °F 24 °F  
Max Temperature 51 °F 37 °F 61 °F (2012)
Min Temperature 22 °F 13 °F -24 °F (1950)
Degree Days  
Heating Degree Days 28 40  
Month to date heating degree days 114 122  
Since 1 July heating degree days 3257 3038  
Cooling Degree Days 0 0  
Month to date cooling degree days 0 0  
Year to date cooling degree days 0 0  
Moisture  
Dew Point 24 °F    
Average Humidity 69    
Maximum Humidity 89    
Minimum Humidity 49    
Precipitation  
Precipitation 0.04 in 0.02 in 0.60 in (1949)
Month to date precipitation 0.04 0.04  
Year to date precipitation 0.04 0.04  
Snow  
Snow T in 0.10 in - ()
Month to date snowfall T 0.4  
Since 1 July snowfall 33.4 13.6  
Snow Depth 0.00 in    
Sea Level Pressure  
Sea Level Pressure 29.63 in    
Wind  
Wind Speed 13 mph (NNW)    
Max Wind Speed 47 mph    
Max Gust Speed 60 mph    
Visibility 10 miles    
Events Rain , Snow    
T = Trace of Precipitation, MM = Missing Value Source: NWS Daily Summary

Daily Weather History Graph

Daily Weather History Graph

Search for Another Location

Airport:

Trip Planner

Search our weather history database for the weather conditions in past years. The results will help you decide how hot, cold, wet, or windy it might be!

Date:

Astronomy

Jan. 03, 2014 Rise Set
Actual Time 7:27 AM MST 4:26 PM MST
Civil Twilight 6:54 AM MST 4:59 PM MST
Nautical Twilight 6:18 AM MST 5:35 PM MST
Astronomical Twilight 5:42 AM MST 6:10 PM MST
Moon 8:48 AM MST (1/3) 7:45 PM MST (1/3)
Length of Visible Light 10h 05m
Length of Day
8h 59m
Waxing Crescent, 8% of the Moon is Illuminated
Jan 3
Waxing Crescent
Jan 7
First Quarter
Jan 15
Full
Jan 23
Last Quarter
Jan 30
New

Hourly Weather History & Observations

Time (MST) Temp. Windchill Dew Point Humidity Pressure Visibility Wind Dir Wind Speed Gust Speed Precip Events Conditions
12:52 AM 25.0 °F 19.3 °F 19.0 °F 78% 29.86 in 10.0 mi East 4.6 mph - N/A   Clear
1:52 AM 24.1 °F - 18.0 °F 77% 29.83 in 10.0 mi Calm Calm - N/A   Clear
2:52 AM 25.0 °F - 18.0 °F 75% 29.80 in 10.0 mi Calm Calm - N/A   Clear
3:52 AM 24.1 °F - 18.0 °F 77% 29.77 in 10.0 mi Calm Calm - N/A   Clear
4:52 AM 27.0 °F - 19.0 °F 72% 29.72 in 10.0 mi Calm Calm - N/A   Clear
5:52 AM 28.9 °F 22.8 °F 21.0 °F 72% 29.68 in 10.0 mi SE 5.8 mph - N/A   Clear
6:52 AM 28.9 °F - 21.0 °F 72% 29.63 in 10.0 mi Calm Calm - N/A   Clear
7:52 AM 28.0 °F - 21.0 °F 75% 29.61 in 10.0 mi Calm Calm - N/A   Clear
8:52 AM 32.0 °F 27.5 °F 24.1 °F 73% 29.58 in 10.0 mi SE 4.6 mph - N/A   Clear
9:52 AM 35.1 °F 30.1 °F 27.0 °F 72% 29.54 in 10.0 mi SE 5.8 mph - N/A   Clear
10:52 AM 41.0 °F - 28.9 °F 62% 29.47 in 10.0 mi Calm Calm - N/A   Overcast
11:45 AM 51.8 °F - 24.8 °F 35% 29.38 in 10.0 mi NNW 19.6 mph 25.3 mph N/A   Overcast
11:52 AM 44.1 °F 36.8 °F 27.0 °F 51% 29.44 in 10.0 mi North 16.1 mph 25.3 mph N/A   Overcast
12:52 PM 39.0 °F 33.4 °F 27.0 °F 62% 29.43 in 10.0 mi North 8.1 mph - N/A   Mostly Cloudy
1:52 PM 39.9 °F - 27.0 °F 60% 29.44 in 10.0 mi Calm Calm - N/A   Overcast
2:52 PM 48.0 °F - 32.0 °F 54% 29.45 in 10.0 mi NNW 28.8 mph 36.8 mph N/A   Overcast
3:52 PM 39.9 °F 34.5 °F 34.0 °F 79% 29.53 in 4.0 mi North 8.1 mph - 0.01 in Rain Light Rain
4:39 PM 35.6 °F 21.3 °F 33.8 °F 93% 29.49 in 10.0 mi NNW 36.8 mph 48.3 mph 0.02 in Rain Light Rain
4:52 PM 35.1 °F 19.2 °F 32.0 °F 89% 29.57 in 6.0 mi NW 46.0 mph 56.4 mph 0.02 in Rain Light Rain
5:52 PM 37.0 °F 28.9 °F 28.0 °F 70% 29.57 in 10.0 mi NW 12.7 mph - 0.01 in   Overcast
6:52 PM 37.0 °F 27.4 °F 26.1 °F 65% 29.59 in 10.0 mi NNW 17.3 mph - N/A   Scattered Clouds
7:52 PM 35.1 °F 24.8 °F 26.1 °F 70% 29.64 in 10.0 mi NNW 17.3 mph - N/A   Clear
8:52 PM 30.9 °F 14.5 °F 21.9 °F 69% 29.70 in 10.0 mi NNW 39.1 mph 55.2 mph N/A   Scattered Clouds
9:52 PM 27.0 °F 9.4 °F 19.0 °F 72% 29.80 in 10.0 mi NNW 36.8 mph 48.3 mph 0.00 in   Overcast
10:52 PM 26.1 °F 7.7 °F 18.0 °F 71% 29.84 in 10.0 mi NNW 39.1 mph 48.3 mph N/A   Overcast
11:22 PM 24.8 °F 7.3 °F 17.6 °F 74% 29.81 in 8.0 mi NNW 32.2 mph 40.3 mph 0.00 in Snow Light Snow
11:52 PM 25.0 °F 8.9 °F 18.0 °F 75% 29.88 in 10.0 mi NNW 26.5 mph 34.5 mph 0.00 in   Overcast